Home   Weather   Prescott   Past weeks

Flag for USA Past Weather in Prescott, Arizona, USA — Yesterday and Last 2 Weeks

Now
57 °F

Sunny.


Feels Like: 55 °F
Forecast: 35 / 54 °F
Wind: 9 mph from Southwest

Location: Love Field

Current Time: Dec 5, 2016 at 2:00:40 pm

Latest Report: Dec 5, 2016 at 12:53 pm


Visibility: 10 mi

Pressure: 29.84 "Hg (24.56 "Hg at 1635m altitude)

Humidity: 17%

Dew Point: 12 °F

Location of PrescottLocation

Past Weather in Prescott — Graph

°F

Prescott Temperature Yesterday

Maximum temperature yesterday: 59 °F (at 2:53 pm)
Minimum temperature yesterday: 23 °F (at 4:53 am)
Average temperature yesterday: 39 °F

High & Low Weather Summary for the Past Weeks

 TemperatureHumidityPressure
High63 °F (Nov 20, 1:53 pm)100% (Nov 20, 5:53 pm)30.32 "Hg (Nov 20, 5:53 pm)
Low20 °F (Nov 30, 5:53 am)12% (Nov 24, 1:53 pm)29.73 "Hg (Nov 28, 12:53 pm)
Average39 °F63%30.00 "Hg
* Reported Nov 20 12:53 pm — Dec 5 12:53 pm, Prescott, Weather by CustomWeather, © 2016

Note: Actual official high and low records may vary slightly from our data, if they occured in-between our weather recording intervals... More about our weather records

Advertising

Prescott Weather History for the Previous 24 Hours

Scroll right to see more
 ConditionsComfort  
Time TempWeatherWind HumidityBarometerVisibility
12:53 pm
Mon, Dec 5
57 °FSunny.9 mph17%29.84 "Hg10 mi
11:53 am55 °FSunny.8 mph16%29.87 "Hg10 mi
10:53 am53 °FSunny.3 mph22%29.89 "Hg10 mi
9:53 am49 °FSunny.3 mph25%29.91 "Hg10 mi
8:53 am41 °FSunny.3 mph36%29.93 "Hg10 mi
7:53 am32 °FSunny.3 mph54%29.92 "Hg10 mi
6:53 am33 °FClear.3 mph49%29.92 "Hg10 mi
5:53 am34 °FClear.9 mph50%29.90 "Hg10 mi
4:53 am35 °FClear.9 mph52%29.85 "Hg10 mi
3:53 am33 °FClear.5 mph58%29.86 "Hg10 mi
2:53 am37 °FClear.No wind52%29.87 "Hg10 mi
1:53 am37 °FClear.5 mph50%29.89 "Hg10 mi
12:53 am34 °FClear.7 mph56%29.92 "Hg10 mi
11:53 pm
Sun, Dec 4
37 °FClear.No wind48%29.94 "Hg10 mi
10:53 pm37 °FClear.10 mph48%29.96 "Hg10 mi
9:53 pm35 °FClear.7 mph52%30.00 "Hg10 mi
8:53 pm35 °FClear.8 mph52%30.04 "Hg10 mi
7:53 pm40 °FClear.12 mph41%30.05 "Hg10 mi
6:53 pm40 °FClear.7 mph38%30.06 "Hg10 mi
5:53 pm43 °FClear.No wind34%30.04 "Hg10 mi
4:53 pm55 °FSunny.3 mph16%30.00 "Hg10 mi
3:53 pm59 °FSunny.5 mph14%29.99 "Hg10 mi
2:53 pm59 °FSunny.5 mph14%29.98 "Hg10 mi
Weather by CustomWeather, © 2016

See weather overviewHow to use our weather pages